Location: Peebles
(55.6412°N, 3.1714°W)
Time: 20:39:02
(UTC+00:00)

IRS-1A Rocket - Visible Passes

Search period start: 24 January 2022 00:00
Search period end: 03 February 2022 00:00
Orbit: 852 x 931 km, 99.1° (Epoch: 24 January)

Date Brightness Start Highest point End Pass type
(mag) Time Alt. Az. Time Alt. Az. Time Alt. Az.
24 Jan 5.4 18:38:20 24° NE 18:38:40 24° NE 18:43:16 10° N visible
24 Jan 5.0 20:21:11 49° NNW 20:21:11 49° NNW 20:25:25 10° NNW visible
24 Jan 6.7 22:04:03 18° WNW 22:04:03 18° WNW 22:06:14 10° NW visible
25 Jan 5.4 18:38:21 24° ENE 18:38:49 24° NE 18:43:26 10° N visible
25 Jan 4.9 20:21:13 52° NNW 20:21:13 52° NNW 20:25:35 10° NNW visible
25 Jan 6.7 22:04:04 18° WNW 22:04:04 18° WNW 22:06:24 10° NW visible
26 Jan 5.4 18:38:23 24° ENE 18:38:58 25° NE 18:43:36 10° N visible
26 Jan 4.8 20:21:14 54° NNW 20:21:14 54° NNW 20:25:45 10° NNW visible
26 Jan 6.7 22:04:06 19° WNW 22:04:06 19° WNW 22:06:33 10° NW visible
27 Jan 5.4 18:38:24 24° ENE 18:39:07 25° NE 18:43:46 10° N visible
27 Jan 4.7 20:21:16 57° NNW 20:21:16 57° NNW 20:25:54 10° NNW visible
27 Jan 6.6 22:04:07 19° WNW 22:04:07 19° WNW 22:06:43 10° NW visible
28 Jan 5.4 18:38:25 24° ENE 18:39:17 25° NE 18:43:55 10° N visible
28 Jan 4.7 20:21:17 60° NNW 20:21:17 60° NNW 20:26:04 10° NNW visible
28 Jan 6.6 22:04:08 19° WNW 22:04:08 19° WNW 22:06:53 10° NW visible
29 Jan 5.4 18:38:26 24° ENE 18:39:27 25° NE 18:44:05 10° N visible
29 Jan 4.6 20:21:18 63° NNW 20:21:18 63° NNW 20:26:14 10° NNW visible
29 Jan 6.6 22:04:10 20° WNW 22:04:10 20° WNW 22:07:03 10° NW visible
30 Jan 5.4 18:38:28 23° ENE 18:39:36 25° NE 18:44:15 10° N visible
30 Jan 4.5 20:21:19 67° NNW 20:21:19 67° NNW 20:26:24 10° NNW visible
30 Jan 6.6 22:04:11 20° WNW 22:04:11 20° WNW 22:07:13 10° NW visible
31 Jan 5.4 18:38:29 23° ENE 18:39:45 25° NE 18:44:25 10° N visible
31 Jan 4.5 20:21:20 70° NNW 20:21:20 70° NNW 20:26:34 10° NNW visible
31 Jan 6.5 22:04:12 20° WNW 22:04:12 20° WNW 22:07:22 10° NW visible
01 Feb 5.4 18:38:31 23° ENE 18:39:55 25° NE 18:44:34 10° N visible
01 Feb 4.4 20:21:22 74° NNW 20:21:22 74° NNW 20:26:43 10° NNW visible
01 Feb 6.5 22:04:13 21° WNW 22:04:13 21° WNW 22:07:32 10° NW visible
02 Feb 5.4 18:38:32 22° ENE 18:40:04 25° NE 18:44:44 10° N visible
02 Feb 4.3 20:21:23 77° N 20:21:23 77° N 20:26:53 10° NNW visible
02 Feb 6.5 22:04:15 21° WNW 22:04:15 21° WNW 22:07:42 10° NW visible
